[[{"header":{"parameterUnit":"m.s-1","parameterCategory":2,"la1":30.2991,"la2":30.254,"lo1":-89.0895,"lo2":-89.0444,"dy":0.0017,"dx":0.0017,"nx":28,"ny":28,"refTime":"2025-07-27T09:00:00:Z","depth":"0","parameterNumber":2,"parameterNumberName":"U-component_of_CURRENTS"},"data":[0,0,0,0,0,0,0,0,0,0,0,0,0,0,0,0,0,0,0,0,0,0,0,0,0,0,0,0,0,0,0,0,0,0,0,0,0,0,0,0,0,0,0,0,0,0,0,0,0,0,0,0,0,0,0,0,0,0,0.3055,0.3055,0,0.3093,0.3093,0.3093,0.3093,0.3092,0.3092,0.3092,0.312,0.3121,0.3122,0,0,0,0,0,0,0,0,0,0,0,0,0,0.2989,0.299,0.3054,0.3055,0.3056,0.3093,0.3093,0.3093,0.3093,0.3092,0.3092,0.3092,0.312,0.3121,0.3122,0,0,0,0,0,0,0,0,0,0,0,0,0,0.3018,0.299,0.3054,0.3063,0.3064,0.3093,0.3093,0.3093,0.3093,0.3092,0.3092,0.3092,0.3119,0.3121,0.3122,0.3137,0,0,0.3126,0.3127,0,0,0,0,0,0,0,0,0.3016,0.302,0.3061,0.3062,0.3064,0.3091,0.3081,0.3109,0.3093,0.3078,0.3092,0.3092,0.3112,0.3114,0.3117,0.3138,0.3139,0.3126,0.3127,0.3128,0.3128,0,0,0,0,0,0,0,0.3014,0.3018,0.3066,0.3062,0.3064,0.3068,0.3071,0.3086,0.3093,0.3079,0.308,0.309,0.3112,0.3115,0.3117,0.3139,0.3126,0.3128,0.3129,0.3129,0.3187,0.3188,0,0,0,0,0,0,0.3017,0.3017,0.3065,0.3068,0.3043,0.307,0.3073,0.308,0.3093,0.3096,0.3091,0.309,0.3113,0.3116,0.3118,0.3143,0.3128,0.3129,0.313,0.3186,0.3187,0.3188,0,0,0,0,0,0,0.3015,0.3021,0.3063,0.3046,0.3052,0.3071,0.3078,0.3081,0.3084,0.3103,0.3104,0.3092,0.3113,0.3117,0.3134,0.3143,0.313,0.3131,0.3186,0.3187,0.3188,0.3187,0,0,0,0,0,0,0.3013,0.302,0.3023,0.3046,0.3053,0.308,0.3079,0.3082,0.3093,0.3092,0.3105,0.3107,0.3113,0.3132,0.3136,0.3145,0.3132,0.3185,0.3186,0.3187,0.3186,0.3188,0.3189,0,0,0,0,0,0.301,0.3018,0.3023,0.3029,0.3058,0.3081,0.3085,0.3095,0.3093,0.3096,0.3106,0.3107,0.3143,0.3134,0.3138,0.3148,0.3184,0.3186,0.3187,0.3185,0.3187,0.3189,0,0,0,0,0,0,0.2994,0.302,0.3026,0.3041,0.306,0.3082,0.3089,0.3096,0.3106,0.3105,0.3115,0.3118,0.3141,0.3145,0.3135,0.317,0.3164,0.3167,0.3162,0.3164,0.3165,0.3174,0.3133,0,0,0,0,0,0.2993,0.3003,0.3029,0.3042,0.3051,0.3069,0.3079,0.3087,0.3103,0.3106,0.3115,0.3129,0.3151,0.3157,0.3175,0.319,0.3211,0.32,0.3202,0.3203,0.3215,0.3265,0.3272,0.3193,0.3193,0.3193,0,0,0.299,0.3007,0.3012,0.3039,0.3052,0.3067,0.3073,0.309,0.3101,0.3109,0.312,0.3137,0.3159,0.3179,0.3189,0.3182,0.3233,0.3205,0.3206,0.3217,0.3267,0.3275,0.3282,0.3194,0.3194,0.3194,0,0,0.2987,0.3004,0.3007,0.3029,0.3055,0.3067,0.3072,0.3093,0.3099,0.3119,0.3131,0.3154,0.3175,0.3195,0.3208,0.3231,0.3245,0.3233,0.3243,0.3291,0.3298,0.3305,0.3325,0.3333,0.3228,0.3228,0.3228,0,0.2975,0.2982,0.3013,0.3029,0.3041,0.3066,0.3071,0.3092,0.3115,0.3124,0.3123,0.3172,0.3187,0.3222,0.3233,0.3235,0.3257,0.323,0.3294,0.3301,0.3307,0.3326,0.3336,0.3228,0.3228,0.3228,0.3228,0,0.2961,0.2982,0.2989,0.3011,0.304,0.3042,0.3083,0.3099,0.3109,0.313,0.3164,0.319,0.3217,0.3227,0.324,0.3291,0.3289,0.3294,0.3287,0.3315,0.3333,0.3343,0.3228,0.3228,0.3228,0.3228,0,0,0.2844,0.2954,0.2944,0.2968,0.3021,0.3034,0.3074,0.3099,0.3116,0.3149,0.3172,0.3218,0.3234,0.3252,0.3268,0.3312,0.3373,0.3324,0.3326,0.3341,0.3466,0.3315,0.3311,0.3392,0.3394,0.3396,0.3453,0,0.2793,0.2824,0.2897,0.292,0.2927,0.3001,0.3037,0.3084,0.3115,0.315,0.3196,0.3229,0.3243,0.3257,0.3306,0.336,0.3402,0.3356,0.344,0.3442,0.3302,0.3318,0.3145,0.3168,0.3462,0.3464,0.3465,0,0.2693,0.2738,0.2757,0.287,0.2881,0.2907,0.2957,0.3007,0.309,0.3126,0.3179,0.3222,0.3289,0.33,0.3406,0.3378,0.3428,0.3468,0.3471,0.334,0.3309,0.3192,0.3175,0.3106,0.348,0.3479,0.3478,0,0.2524,0.2619,0.2629,0.266,0.2795,0.2816,0.2877,0.2967,0.2998,0.3107,0.3124,0.3231,0.3252,0.3358,0.3421,0.3434,0.3528,0.3553,0.3464,0.3453,0.3326,0.3299,0.3249,0.3643,0.3643,0.3643,0.3643,0,0.2401,0.2416,0.2548,0.2554,0.2577,0.271,0.2731,0.2826,0.2918,0.2953,0.3086,0.3104,0.3271,0.333,0.3427,0.3442,0.3528,0.3467,0.346,0.3315,0.3288,0.3238,0.3214,0.3645,0.3644,0.3644,0.3644,0,0.2254,0.2321,0.2356,0.2477,0.25,0.2521,0.2634,0.2665,0.2767,0.2815,0.2848,0.2997,0.3093,0.3218,0.3376,0.3391,0.3359,0.3457,0.3251,0.3217,0.3049,0.303,0.2894,0.2821,0.3383,0.3379,0.3376,0,0.2225,0.2209,0.228,0.2295,0.2353,0.2395,0.2432,0.2561,0.26,0.273,0.2743,0.2846,0.291,0.3044,0.3124,0.3234,0.3215,0.3117,0.3108,0.3002,0.2981,0.2913,0.2859,0.2951,0.2945,0.294,0.2936,0,0.2199,0.2187,0.2228,0.2215,0.2234,0.2268,0.2325,0.2317,0.2473,0.2502,0.257,0.2629,0.2732,0.2757,0.286,0.292,0.2929,0.3012,0.2979,0.2686,0.2537,0.2474,0.2944,0.2891,0.2896,0.2899,0.2901,0.2903,0.2207,0.2198,0.2203,0.2189,0.2193,0.2178,0.2167,0.2218,0.2244,0.2294,0.2381,0.24,0.2451,0.2567,0.2611,0.254,0.2605,0.2502,0.2507,0.2464,0.2315,0.265,0.2532,0.2534,0.2536,0.2538,0.2539,0,0.2247,0.2214,0.22,0.2171,0.2132,0.2141,0.2137,0.2107,0.2097,0.2118,0.2143,0.2109,0.2098,0.2169,0.2146,0.2076,0.2048,0.2025,0.1933,0.1927,0.2296,0.2196,0.1904,0.1904,0.1904,0.1904,0.1904,0.1904,0.2279,0.2247,0.22,0.2129,0.2092,0.2016,0.199,0.1935,0.1914,0.1833,0.1777,0.1783,0.1848,0.1826,0.1767,0.1738,0.1676,0.1527,0.1609,0.1909,0.1956,0.2001,0.1903,0.1554,0.1554,0.116,0.1157,0.1155]},{"header":{"parameterUnit":"m.s-1","parameterCategory":2,"la1":30.2991,"la2":30.254,"lo1":-89.0895,"lo2":-89.0444,"dy":0.0017,"dx":0.0017,"nx":28,"ny":28,"refTime":"2025-07-27T09:00:00:Z","depth":"0","parameterNumber":3,"parameterNumberName":"V-component_of_CURRENTS"},"data":[0,0,0,0,0,0,0,0,0,0,0,0,0,0,0,0,0,0,0,0,0,0,0,0,0,0,0,0,0,0,0,0,0,0,0,0,0,0,0,0,0,0,0,0,0,0,0,0,0,0,0,0,0,0,0,0,0,0,0.0072,0.0072,0,0.0046,0.0045,0.0045,0.0016,0.0016,0.0016,0.0015,-0.005,-0.0052,-0.0053,0,0,0,0,0,0,0,0,0,0,0,0,0,0.0048,0.0049,0.0072,0.0072,0.0072,0.0046,0.0045,0.0045,0.0016,0.0016,0.0016,0.0015,-0.005,-0.0051,-0.0053,0,0,0,0,0,0,0,0,0,0,0,0,0,0.0044,0.005,0.0072,0.0055,0.0053,0.0046,0.0045,0.0045,0.0017,0.0016,0.0015,0.0015,-0.0049,-0.0051,-0.0053,-0.0055,0,0,-0.006,-0.0061,0,0,0,0,0,0,0,0,0.0044,0.0045,0.0058,0.0056,0.0054,0.0034,0.0013,0.0009,0.0017,0.003,0.0015,0.0015,-0.0025,-0.0029,-0.0033,-0.0058,-0.0061,-0.006,-0.0061,-0.0062,-0.0063,0,0,0,0,0,0,0,0.0045,0.0045,0.0061,0.0057,0.0055,0.0031,0.003,0.0012,0.0005,0.0029,0.0027,0.0025,-0.0026,-0.0031,-0.0035,-0.0062,-0.006,-0.0062,-0.0063,-0.0064,-0.0101,-0.0101,0,0,0,0,0,0,0.0052,0.0046,0.0062,0.006,0.0048,0.0032,0.0031,0.0041,0.0006,0.0,0.0025,0.0023,-0.0027,-0.0032,-0.0037,-0.0032,-0.0062,-0.0064,-0.0065,-0.0101,-0.0101,-0.0101,0,0,0,0,0,0,0.0052,0.0054,0.0063,0.0052,0.0051,0.0034,0.0044,0.004,0.0035,0.0004,-0.0003,0.0024,-0.0028,-0.0034,-0.0046,-0.0035,-0.0065,-0.0067,-0.0102,-0.0101,-0.0101,-0.0028,0,0,0,0,0,0,0.0052,0.0055,0.0064,0.0053,0.0052,0.0069,0.0045,0.004,0.0035,0.0032,0.0,-0.0006,-0.0028,-0.0042,-0.0048,-0.0039,-0.0069,-0.0102,-0.0102,-0.0101,-0.003,-0.0025,-0.002,0,0,0,0,0,0.0051,0.0074,0.0065,0.0067,0.0067,0.007,0.0068,0.0052,0.0036,0.0043,0.0019,-0.0005,-0.0043,-0.0043,-0.005,-0.0041,-0.0102,-0.0102,-0.0101,-0.0033,-0.0026,-0.002,0,0,0,0,0,0,0.0075,0.0073,0.0063,0.0085,0.008,0.0065,0.007,0.0055,0.0043,0.0037,0.0003,-0.0004,-0.0012,-0.0038,-0.0037,-0.0052,-0.0079,-0.008,-0.0025,-0.0019,-0.0014,0.0003,-0.007,0,0,0,0,0,0.0083,0.0096,0.0088,0.0105,0.0103,0.0085,0.0082,0.0072,0.0059,0.0052,0.003,0.0003,-0.0014,-0.0024,-0.0044,-0.0049,-0.0063,-0.0051,-0.0046,-0.0041,-0.0033,-0.0044,-0.0038,-0.0099,-0.0099,-0.0099,0,0,0.0099,0.0097,0.0106,0.011,0.0102,0.0112,0.0082,0.0085,0.0092,0.0047,0.0049,0.0023,-0.0011,-0.0015,-0.0021,-0.0035,-0.0029,-0.004,-0.0036,-0.0031,-0.0043,-0.0037,-0.0031,-0.0098,-0.0098,-0.0098,0,0,0.0139,0.0133,0.0157,0.0153,0.0145,0.0134,0.0137,0.0124,0.0116,0.0117,0.0083,0.0066,0.0041,0.0021,0.0006,0.0027,-0.0,0.0015,0.0055,0.0045,0.0051,0.0055,0.0059,0.0063,0.0017,0.0017,0.0017,0,0.016,0.0185,0.0165,0.0181,0.0182,0.0148,0.017,0.016,0.0146,0.0143,0.0127,0.0092,0.006,0.0054,0.006,0.004,0.0035,0.0038,0.0054,0.0058,0.0061,0.0064,0.0068,0.0021,0.002,0.002,0.002,0,0.0218,0.0229,0.0242,0.025,0.0248,0.0261,0.0241,0.0238,0.022,0.0208,0.02,0.0162,0.0139,0.0125,0.01,0.0104,0.0094,0.0065,0.0044,0.0072,0.0073,0.0076,0.0026,0.0025,0.0023,0.0023,0,0,0.0298,0.0287,0.0292,0.0298,0.0283,0.0293,0.0296,0.0296,0.0305,0.0281,0.0296,0.0255,0.0227,0.0207,0.0169,0.0159,0.0177,0.0128,0.0126,0.0143,0.0171,0.0157,0.0158,0.0154,0.0155,0.0155,0.0168,0,0.0354,0.0393,0.037,0.0403,0.042,0.0379,0.0388,0.0377,0.0361,0.0366,0.032,0.0314,0.0259,0.025,0.0233,0.0193,0.0185,0.0177,0.0132,0.0131,0.0123,0.0161,0.0155,0.0165,0.017,0.0171,0.0171,0,0.0426,0.0439,0.048,0.0473,0.0478,0.0491,0.0493,0.0495,0.0476,0.0462,0.0438,0.0399,0.0376,0.0325,0.0278,0.0278,0.0232,0.0199,0.0198,0.0161,0.0121,0.0133,0.0169,0.0099,0.0175,0.0174,0.0174,0,0.0497,0.0516,0.0548,0.0549,0.0541,0.0553,0.055,0.0534,0.0544,0.0524,0.0532,0.0484,0.0476,0.0411,0.033,0.0308,0.0289,0.0244,0.0189,0.0188,0.0161,0.0157,0.0132,0.0213,0.0213,0.0212,0.0212,0,0.0561,0.0585,0.0588,0.0605,0.0649,0.0621,0.0661,0.0641,0.064,0.0672,0.0589,0.0609,0.0498,0.0463,0.0375,0.0304,0.0319,0.0212,0.0193,0.0187,0.0185,0.0102,0.0059,0.0213,0.0213,0.0213,0.0213,0,0.0612,0.0616,0.0655,0.0669,0.068,0.0712,0.0731,0.0754,0.074,0.0782,0.0779,0.0722,0.0673,0.0562,0.0471,0.0373,0.0255,0.0258,0.0267,0.0248,0.0116,0.0078,0.0045,0.0015,0.0203,0.0203,0.0203,0,0.0632,0.0662,0.0706,0.0734,0.074,0.0784,0.0808,0.0806,0.0838,0.0861,0.0891,0.0851,0.0835,0.069,0.0509,0.036,0.0275,0.0247,0.0189,0.0125,0.0068,0.005,0.0025,0.0189,0.0189,0.0189,0.0188,0,0.0664,0.0685,0.071,0.0778,0.0821,0.0874,0.0918,0.0968,0.0982,0.1026,0.1077,0.1069,0.0914,0.0758,0.0532,0.0411,0.0202,0.0237,0.0165,0.0057,0.0041,-0.0002,0.0174,0.0186,0.0186,0.0187,0.0187,0.0187,0.0676,0.0704,0.0745,0.0808,0.0867,0.095,0.1008,0.1073,0.1154,0.1231,0.1224,0.123,0.0985,0.0671,0.049,0.0175,0.0192,0.0082,0.0045,0.0036,-0.0006,0.0175,0.0162,0.0162,0.0162,0.0162,0.0162,0,0.0674,0.0708,0.0767,0.0846,0.0921,0.0953,0.1063,0.1134,0.1254,0.1327,0.138,0.1263,0.0966,0.0649,0.0221,0.0017,-0.0057,-0.0075,-0.0108,-0.0123,0.0033,0.0017,-0.0021,-0.0021,-0.0021,-0.0021,-0.0021,-0.0021,0.0669,0.0711,0.0747,0.0866,0.0934,0.1041,0.1115,0.1235,0.1316,0.1421,0.1427,0.141,0.1176,0.0467,-0.0017,-0.014,-0.0257,-0.027,-0.0316,-0.0226,-0.0214,-0.0203,-0.0228,-0.0317,-0.0317,-0.0451,-0.0452,-0.0454]}],[{"header":{"parameterUnit":"m.s-1","parameterCategory":2,"la1":30.2991,"la2":30.254,"lo1":-89.0895,"lo2":-89.0444,"dy":0.0017,"dx":0.0017,"nx":28,"ny":28,"refTime":"2025-07-27T09:00:00:Z","depth":"2","parameterNumber":2,"parameterNumberName":"U-component_of_CURRENTS"},"data":[0,0,0,0,0,0,0,0,0,0,0,0,0,0,0,0,0,0,0,0,0,0,0,0,0,0,0,0,0,0,0,0,0,0,0,0,0,0,0,0,0,0,0,0,0,0,0,0,0,0,0,0,0,0,0,0,0,0,0.1994,0.1994,0,0.1981,0.1981,0.1981,0.1972,0.1972,0.1972,0.1972,0.1956,0.1955,0.1954,0,0,0,0,0,0,0,0,0,0,0,0,0,0.1986,0.1986,0.1994,0.1994,0.1994,0.1981,0.1981,0.1981,0.1972,0.1972,0.1972,0.1972,0.1956,0.1955,0.1954,0,0,0,0,0,0,0,0,0,0,0,0,0,0.198,0.1986,0.1994,0.199,0.199,0.1982,0.1981,0.198,0.1972,0.1972,0.1972,0.1972,0.1956,0.1955,0.1954,0.1943,0,0,0.1951,0.1951,0,0,0,0,0,0,0,0,0.198,0.198,0.1991,0.1991,0.199,0.1981,0.1972,0.1969,0.1972,0.1976,0.1972,0.1973,0.1965,0.1964,0.1957,0.1942,0.1941,0.1951,0.1951,0.195,0.195,0,0,0,0,0,0,0,0.1981,0.198,0.1986,0.1991,0.1991,0.1981,0.1981,0.1971,0.1967,0.1975,0.1975,0.1978,0.1965,0.1957,0.1956,0.1941,0.1951,0.195,0.195,0.195,0.1978,0.1979,0,0,0,0,0,0,0.1989,0.1981,0.1987,0.1986,0.1989,0.1981,0.1981,0.1981,0.1967,0.1966,0.1978,0.1978,0.1959,0.1957,0.1956,0.1995,0.195,0.1949,0.1949,0.1976,0.1978,0.1979,0,0,0,0,0,0,0.1989,0.199,0.1987,0.1986,0.1985,0.1982,0.1982,0.1981,0.1985,0.197,0.1968,0.1985,0.1959,0.1957,0.1962,0.1992,0.1949,0.1948,0.1975,0.1977,0.1979,0.204,0,0,0,0,0,0,0.1989,0.199,0.1992,0.1986,0.1986,0.1988,0.1982,0.1981,0.1987,0.1987,0.1975,0.1973,0.1959,0.1963,0.1961,0.199,0.1947,0.1973,0.1976,0.1978,0.2036,0.2043,0.205,0,0,0,0,0,0.1988,0.1985,0.1992,0.1992,0.1989,0.1989,0.1987,0.1984,0.1987,0.1988,0.1987,0.1974,0.1978,0.1963,0.196,0.199,0.1972,0.1975,0.1978,0.2033,0.2042,0.205,0,0,0,0,0,0,0.1964,0.1984,0.1991,0.1989,0.1995,0.1989,0.1989,0.1991,0.199,0.1995,0.1981,0.1978,0.1999,0.1984,0.1968,0.2007,0.1977,0.1979,0.202,0.2028,0.2035,0.2038,0.1947,0,0,0,0,0,0.1966,0.1979,0.1989,0.1987,0.1995,0.1997,0.1997,0.2,0.1999,0.1999,0.1995,0.1997,0.2006,0.2008,0.2008,0.2019,0.2034,0.2041,0.2048,0.2053,0.2055,0.2125,0.2139,0.1989,0.1989,0.1989,0,0,0.195,0.1968,0.197,0.1985,0.1991,0.1999,0.1997,0.2005,0.2014,0.1998,0.2009,0.2018,0.2015,0.2036,0.2044,0.2028,0.2102,0.2057,0.2062,0.206,0.213,0.2145,0.2158,0.1991,0.1991,0.1991,0,0,0.1927,0.1951,0.1953,0.1973,0.1996,0.2003,0.2011,0.202,0.2028,0.2042,0.2044,0.2071,0.207,0.2083,0.2088,0.2131,0.2138,0.2138,0.2173,0.2242,0.2255,0.2267,0.2298,0.2312,0.214,0.214,0.214,0,0.1896,0.192,0.195,0.1968,0.1988,0.2009,0.2019,0.2029,0.2038,0.2058,0.2054,0.2098,0.2095,0.2136,0.2155,0.2148,0.2179,0.2141,0.2252,0.2264,0.2275,0.2305,0.2319,0.2143,0.2143,0.2143,0.2142,0,0.1873,0.1911,0.1918,0.1956,0.198,0.1994,0.2028,0.2053,0.2076,0.209,0.2142,0.2151,0.2186,0.2193,0.2185,0.2264,0.2258,0.2256,0.2233,0.2294,0.2321,0.2335,0.2148,0.2147,0.2146,0.2145,0,0,0.1766,0.1873,0.1879,0.1923,0.1984,0.1998,0.2041,0.2082,0.2122,0.2146,0.2198,0.2228,0.2258,0.2266,0.2276,0.2325,0.2426,0.2328,0.2331,0.2361,0.2568,0.2359,0.2355,0.2459,0.2462,0.2464,0.2553,0,0.1736,0.1767,0.1841,0.1894,0.1925,0.2001,0.2053,0.2104,0.2142,0.2198,0.2238,0.229,0.2279,0.2319,0.237,0.2413,0.2468,0.24,0.2501,0.2503,0.2313,0.2366,0.2198,0.2246,0.2567,0.2569,0.2571,0,0.1698,0.1738,0.1767,0.1912,0.1933,0.1965,0.2068,0.2116,0.2208,0.2258,0.2321,0.2358,0.2435,0.2424,0.2538,0.2503,0.2547,0.2571,0.2576,0.2367,0.2321,0.2237,0.2259,0.2595,0.2593,0.2591,0.259,0,0.1618,0.1708,0.1732,0.1767,0.1903,0.1946,0.2014,0.2117,0.2157,0.229,0.2313,0.2444,0.2472,0.258,0.2592,0.2612,0.2686,0.2725,0.2576,0.2562,0.2425,0.2391,0.2824,0.2824,0.2824,0.2824,0.2824,0,0.1584,0.1627,0.1692,0.1719,0.1774,0.1896,0.196,0.2063,0.2166,0.2209,0.2324,0.2349,0.2516,0.255,0.2623,0.2594,0.2718,0.2582,0.2574,0.2435,0.2403,0.2708,0.2693,0.2827,0.2826,0.2826,0.2825,0,0.1545,0.1577,0.1626,0.1723,0.1745,0.1785,0.1893,0.1945,0.2055,0.2106,0.215,0.2283,0.2351,0.2429,0.2578,0.2567,0.2615,0.2573,0.2361,0.2322,0.246,0.2448,0.2494,0.2487,0.2482,0.2477,0.2473,0,0.1544,0.1547,0.1588,0.16,0.1646,0.17,0.1748,0.1875,0.1918,0.2036,0.205,0.2124,0.216,0.2227,0.2266,0.2333,0.2437,0.2187,0.2185,0.244,0.2429,0.2425,0.2421,0.2056,0.2049,0.2043,0.2038,0,0.1551,0.1536,0.1566,0.156,0.1578,0.1612,0.1676,0.1672,0.1821,0.184,0.1898,0.1935,0.1965,0.1949,0.1959,0.1986,0.2171,0.2065,0.2432,0.2115,0.202,0.201,0.2023,0.1987,0.1992,0.1996,0.1999,0.2001,0.1549,0.1541,0.1537,0.154,0.1555,0.1554,0.1542,0.1587,0.1608,0.1645,0.1724,0.171,0.1759,0.169,0.1656,0.1638,0.1809,0.1803,0.1826,0.1854,0.1737,0.1632,0.1505,0.1508,0.151,0.1511,0.1513,0,0.1544,0.1529,0.1529,0.1507,0.149,0.1528,0.1526,0.1486,0.1453,0.1491,0.1509,0.139,0.1346,0.1386,0.1286,0.1288,0.1346,0.1248,0.1344,0.1393,0.1437,0.1304,0.0956,0.0954,0.0953,0.0951,0,0,0.1543,0.1515,0.1494,0.1443,0.1443,0.1391,0.1372,0.131,0.1297,0.1232,0.1205,0.1288,0.1335,0.1131,0.1106,0.1018,0.1205,0.0974,0.1419,0.158,0.1623,0.1747,0.1593,0,0,0,0,0]},{"header":{"parameterUnit":"m.s-1","parameterCategory":2,"la1":30.2991,"la2":30.254,"lo1":-89.0895,"lo2":-89.0444,"dy":0.0017,"dx":0.0017,"nx":28,"ny":28,"refTime":"2025-07-27T09:00:00:Z","depth":"2","parameterNumber":3,"parameterNumberName":"V-component_of_CURRENTS"},"data":[0,0,0,0,0,0,0,0,0,0,0,0,0,0,0,0,0,0,0,0,0,0,0,0,0,0,0,0,0,0,0,0,0,0,0,0,0,0,0,0,0,0,0,0,0,0,0,0,0,0,0,0,0,0,0,0,0,0,0.0369,0.0369,0,0.0342,0.0342,0.0341,0.0323,0.0323,0.0323,0.0323,0.0236,0.0234,0.0232,0,0,0,0,0,0,0,0,0,0,0,0,0,0.0375,0.0375,0.0369,0.0369,0.0369,0.0342,0.0342,0.0341,0.0323,0.0323,0.0323,0.0323,0.0237,0.0234,0.0232,0,0,0,0,0,0,0,0,0,0,0,0,0,0.0362,0.0375,0.0369,0.0357,0.0356,0.0342,0.0342,0.0341,0.0323,0.0323,0.0323,0.0323,0.0238,0.0235,0.0231,0.0213,0,0,0.0221,0.022,0,0,0,0,0,0,0,0,0.0363,0.0362,0.0359,0.0358,0.0356,0.0336,0.0312,0.0295,0.0323,0.0335,0.0323,0.0323,0.0265,0.0259,0.0254,0.0209,0.0205,0.0221,0.0219,0.0217,0.0216,0,0,0,0,0,0,0,0.0364,0.0363,0.0358,0.0359,0.0357,0.0342,0.034,0.0309,0.0299,0.0334,0.0333,0.033,0.0263,0.0258,0.0252,0.0204,0.0221,0.0218,0.0216,0.0215,0.0129,0.0129,0,0,0,0,0,0,0.037,0.0364,0.0359,0.0357,0.036,0.0342,0.034,0.0342,0.0301,0.0295,0.0331,0.033,0.0263,0.0256,0.0249,0.0231,0.0217,0.0214,0.0212,0.0129,0.0129,0.0129,0,0,0,0,0,0,0.037,0.037,0.036,0.036,0.0358,0.0342,0.0345,0.0342,0.0339,0.0299,0.0292,0.0331,0.0263,0.0254,0.0228,0.0227,0.0213,0.021,0.013,0.0129,0.0129,0.0191,0,0,0,0,0,0,0.0371,0.037,0.0376,0.0361,0.0358,0.0356,0.0345,0.0342,0.0338,0.0336,0.0297,0.0289,0.0262,0.0234,0.0225,0.0222,0.0207,0.013,0.0129,0.0129,0.0189,0.0193,0.0196,0,0,0,0,0,0.0371,0.0378,0.0376,0.0376,0.0366,0.0357,0.0354,0.0342,0.0338,0.0338,0.0315,0.029,0.0224,0.0231,0.0221,0.0217,0.013,0.013,0.0129,0.0188,0.0192,0.0196,0,0,0,0,0,0,0.0387,0.0376,0.0374,0.0379,0.0371,0.0354,0.0353,0.0346,0.0329,0.0327,0.0291,0.0281,0.0259,0.0227,0.0236,0.0189,0.0171,0.0168,0.0219,0.0222,0.0226,0.0244,0.0204,0,0,0,0,0,0.0393,0.0394,0.0382,0.0388,0.0384,0.037,0.0366,0.0359,0.0341,0.0334,0.0309,0.0276,0.0247,0.0228,0.0199,0.0174,0.0155,0.0162,0.0165,0.0168,0.0175,0.0157,0.016,0.0127,0.0127,0.0127,0,0,0.0404,0.0396,0.0399,0.0391,0.0384,0.0382,0.0367,0.0363,0.0362,0.0325,0.0316,0.0289,0.0244,0.0222,0.0207,0.0195,0.0165,0.0167,0.0171,0.0176,0.0156,0.016,0.0163,0.0126,0.0126,0.0126,0,0,0.042,0.0416,0.0421,0.0413,0.0403,0.0394,0.0395,0.038,0.0374,0.0361,0.0336,0.0317,0.0267,0.0244,0.0223,0.0224,0.0187,0.0202,0.023,0.0212,0.0216,0.0218,0.0196,0.0196,0.02,0.02,0.02,0,0.0439,0.0441,0.0422,0.0421,0.042,0.0401,0.0408,0.0396,0.0377,0.0377,0.0364,0.0315,0.0281,0.0258,0.0257,0.0234,0.0213,0.0223,0.0219,0.0221,0.0223,0.02,0.0199,0.0203,0.0202,0.0202,0.0202,0,0.0455,0.0457,0.0458,0.0452,0.0445,0.0449,0.043,0.0426,0.0417,0.0409,0.0393,0.0355,0.0326,0.0309,0.0281,0.027,0.0249,0.0232,0.0217,0.023,0.0204,0.0202,0.0207,0.0206,0.0205,0.0204,0,0,0.0498,0.048,0.048,0.0486,0.0465,0.0466,0.0458,0.0456,0.0466,0.0439,0.0451,0.0402,0.0387,0.0361,0.0326,0.031,0.0302,0.0276,0.0274,0.0267,0.0258,0.021,0.0203,0.0284,0.0284,0.0284,0.0235,0,0.0524,0.0538,0.0515,0.053,0.0534,0.051,0.0507,0.0497,0.049,0.0495,0.0459,0.0451,0.0402,0.0395,0.0369,0.0327,0.03,0.0316,0.0233,0.0231,0.0199,0.0201,0.0216,0.0171,0.0233,0.0233,0.0233,0,0.0536,0.055,0.0571,0.0572,0.0574,0.0579,0.0585,0.058,0.0568,0.0561,0.0543,0.0515,0.0485,0.0446,0.0373,0.0384,0.0321,0.0284,0.0281,0.0216,0.0181,0.0165,0.0165,0.0229,0.0229,0.023,0.023,0,0.0565,0.058,0.0606,0.0606,0.0605,0.0616,0.062,0.0608,0.0618,0.061,0.0618,0.0573,0.0558,0.0484,0.039,0.0382,0.0314,0.0292,0.0187,0.0182,0.0168,0.0162,0.0233,0.0233,0.0233,0.0233,0.0234,0,0.0585,0.0602,0.063,0.0642,0.0679,0.066,0.0695,0.0685,0.0692,0.0717,0.0658,0.0662,0.0567,0.051,0.0416,0.0297,0.0325,0.0193,0.0168,0.0188,0.0185,0.0213,0.0211,0.0232,0.0232,0.0232,0.0233,0,0.0586,0.0604,0.0635,0.067,0.0685,0.0709,0.0744,0.0769,0.0763,0.0794,0.0793,0.0738,0.0649,0.0539,0.0426,0.0331,0.0226,0.0169,0.0196,0.0173,0.0099,0.0101,0.0054,0.0052,0.005,0.0049,0.0048,0,0.0586,0.0602,0.066,0.0689,0.0709,0.0753,0.0778,0.0796,0.0831,0.0839,0.0859,0.0784,0.0729,0.0535,0.0359,0.0182,0.0175,0.0084,0.0064,0.0101,0.0081,0.0086,0.009,0.0071,0.007,0.0069,0.0069,0,0.0585,0.0606,0.064,0.0707,0.0754,0.0809,0.0863,0.0904,0.0929,0.0949,0.0959,0.0918,0.0714,0.0535,0.0287,0.0168,0.0115,0.0059,0.0104,0.0107,0.0111,0.0094,0.0098,0.0062,0.0063,0.0063,0.0064,0.0064,0.0585,0.0611,0.0662,0.0724,0.0785,0.0864,0.0915,0.0975,0.1031,0.1067,0.1031,0.0964,0.0769,0.0426,0.0229,0.0023,0.0026,-0.0026,-0.0021,-0.0015,-0.0011,-0.0011,-0.0083,-0.0083,-0.0083,-0.0083,-0.0083,0,0.0581,0.0619,0.0676,0.0759,0.0829,0.0866,0.0965,0.1015,0.1087,0.1105,0.1099,0.0892,0.0678,0.0451,0.0135,-0.005,-0.0046,-0.01,-0.0039,-0.0032,-0.0026,-0.0019,-0.0095,-0.0095,-0.0095,-0.0096,0,0,0.0579,0.0627,0.0664,0.0778,0.0845,0.0942,0.1005,0.1074,0.1112,0.1121,0.1081,0.1003,0.0731,0.0509,0.0258,0.0087,0.0073,0.0049,0.0076,0.0185,0.0194,0.003,0.0048,0,0,0,0,0]}],[{"header":{"parameterUnit":"m.s-1","parameterCategory":2,"la1":30.2991,"la2":30.254,"lo1":-89.0895,"lo2":-89.0444,"dy":0.0017,"dx":0.0017,"nx":28,"ny":28,"refTime":"2025-07-27T09:00:00:Z","depth":"4","parameterNumber":2,"parameterNumberName":"U-component_of_CURRENTS"},"data":[0,0,0,0,0,0,0,0,0,0,0,0,0,0,0,0,0,0,0,0,0,0,0,0,0,0,0,0,0,0,0,0,0,0,0,0,0,0,0,0,0,0,0,0,0,0,0,0,0,0,0,0,0,0,0,0,0,0,0.0085,0.0085,0,0.01,0.01,0.0101,0.0178,0.018,0.0181,0.0183,0.0246,0.0246,0.0246,0,0,0,0,0,0,0,0,0,0,0,0,0,0.006,0.006,0.0085,0.0085,0.0085,0.01,0.0101,0.0101,0.0178,0.018,0.0182,0.0184,0.0246,0.0246,0.0246,0,0,0,0,0,0,0,0,0,0,0,0,0,0.0074,0.006,0.0085,0.0124,0.0127,0.01,0.0101,0.0101,0.0177,0.018,0.0182,0.0185,0.0246,0.0246,0.0246,0.0197,0,0,0.0247,0.0247,0,0,0,0,0,0,0,0,0.0073,0.0075,0.0118,0.0121,0.0125,0.0138,0.0115,0.0135,0.0177,0.016,0.0183,0.0186,0.0211,0.0214,0.0214,0.02,0.0203,0.0247,0.0247,0.0247,0.0247,0,0,0,0,0,0,0,0.0072,0.0075,0.0093,0.0118,0.0122,0.0119,0.0124,0.0118,0.0174,0.0162,0.0167,0.0165,0.0214,0.0213,0.0216,0.0204,0.0247,0.0247,0.0247,0.0247,0.0311,0.0313,0,0,0,0,0,0,0.0067,0.0074,0.0092,0.0093,0.0103,0.0117,0.0124,0.0133,0.0173,0.0181,0.0163,0.0168,0.0212,0.0215,0.0218,0.0326,0.0247,0.0247,0.0247,0.0309,0.0311,0.0313,0,0,0,0,0,0,0.0067,0.0069,0.0092,0.0082,0.0084,0.0115,0.0125,0.0132,0.018,0.0173,0.0183,0.0209,0.0214,0.0218,0.0267,0.0323,0.0247,0.0247,0.0308,0.031,0.0312,0.0436,0,0,0,0,0,0,0.0066,0.0069,0.0089,0.0082,0.0085,0.0108,0.0122,0.013,0.017,0.018,0.0214,0.022,0.0216,0.0267,0.0267,0.0322,0.0248,0.0306,0.0309,0.0312,0.043,0.0443,0.0453,0,0,0,0,0,0.0065,0.0069,0.0091,0.0093,0.0107,0.0108,0.0111,0.0141,0.0171,0.0194,0.0231,0.0222,0.0286,0.0268,0.0268,0.0324,0.0304,0.0308,0.0311,0.0425,0.044,0.0453,0,0,0,0,0,0,0.0078,0.0077,0.01,0.011,0.0127,0.0122,0.0138,0.0162,0.0206,0.0235,0.0237,0.0245,0.0309,0.029,0.027,0.0349,0.0294,0.0298,0.0381,0.0395,0.0406,0.0419,0.0248,0,0,0,0,0,0.0086,0.0097,0.0099,0.0119,0.0122,0.0142,0.0153,0.0182,0.0206,0.0231,0.0263,0.0291,0.0311,0.0335,0.0345,0.0382,0.0339,0.0418,0.0429,0.0439,0.0449,0.043,0.0441,0.0325,0.0325,0.0325,0,0,0.0094,0.0102,0.0108,0.0124,0.0137,0.0149,0.0157,0.0191,0.0235,0.0227,0.0314,0.0333,0.0328,0.0384,0.041,0.0385,0.0447,0.0444,0.0453,0.0457,0.0435,0.0446,0.0456,0.0327,0.0327,0.0326,0,0,0.0105,0.0127,0.0134,0.0145,0.0176,0.0186,0.0206,0.0238,0.0291,0.0359,0.037,0.0424,0.0462,0.0476,0.048,0.0553,0.0506,0.0567,0.0645,0.0627,0.0637,0.0644,0.0593,0.0595,0.0577,0.0577,0.0577,0,0.0129,0.0133,0.014,0.0152,0.0162,0.0207,0.0221,0.027,0.0334,0.0379,0.041,0.0493,0.0502,0.055,0.0598,0.0581,0.0554,0.0597,0.0643,0.065,0.0656,0.0601,0.0602,0.0584,0.0583,0.0582,0.0582,0,0.0146,0.0149,0.0153,0.0185,0.0199,0.0224,0.027,0.034,0.0417,0.0467,0.0571,0.06,0.0651,0.0668,0.0668,0.0724,0.0684,0.0657,0.061,0.0675,0.0613,0.0612,0.0593,0.0591,0.0589,0.0587,0,0,0.0223,0.0169,0.0182,0.0189,0.022,0.0244,0.0313,0.0382,0.0448,0.0562,0.0635,0.0723,0.0773,0.0782,0.0793,0.08,0.0827,0.0773,0.0769,0.0725,0.0775,0.0795,0.0794,0.082,0.0821,0.0821,0.071,0,0.0252,0.0246,0.0213,0.0245,0.0253,0.0283,0.0334,0.0419,0.0503,0.0594,0.0679,0.0752,0.0806,0.0845,0.0877,0.0835,0.0832,0.0858,0.0715,0.071,0.0724,0.0797,0.0824,0.0709,0.0708,0.0708,0.0708,0,0.0314,0.0296,0.0293,0.0275,0.0282,0.0311,0.0404,0.0452,0.0564,0.0633,0.0743,0.0801,0.0882,0.0889,0.0899,0.0922,0.0875,0.0831,0.0825,0.0802,0.073,0.0631,0.0704,0.0704,0.0705,0.0705,0.0705,0,0.0411,0.0371,0.0368,0.0368,0.0353,0.0384,0.0402,0.0491,0.0548,0.0662,0.0724,0.0822,0.0879,0.0871,0.088,0.0882,0.0839,0.0802,0.076,0.0757,0.0711,0.0704,0.0772,0.0772,0.0772,0.0772,0.0773,0,0.0469,0.0479,0.0418,0.043,0.0464,0.0443,0.0505,0.0547,0.0607,0.0682,0.0767,0.0844,0.0885,0.0899,0.0869,0.0847,0.0836,0.0791,0.075,0.0763,0.0763,0.0708,0.0702,0.0768,0.0769,0.077,0.0771,0,0.0561,0.0516,0.0525,0.0501,0.0506,0.0546,0.0548,0.0592,0.0645,0.0735,0.0779,0.0867,0.0902,0.0906,0.0852,0.0832,0.0776,0.0746,0.0757,0.0714,0.069,0.0692,0.0677,0.0677,0.0677,0.0677,0.0678,0,0.0578,0.0594,0.0592,0.0595,0.0578,0.0609,0.0626,0.0645,0.068,0.0764,0.081,0.0872,0.0936,0.0869,0.0865,0.0787,0.0774,0.0708,0.0731,0.0729,0.069,0.0691,0.0692,0.0678,0.0678,0.0678,0.0678,0,0.0611,0.0633,0.0626,0.0639,0.0657,0.0657,0.0676,0.0705,0.0739,0.0803,0.085,0.0867,0.0893,0.0878,0.0831,0.0775,0.0743,0.071,0.0708,0.0729,0.073,0.0691,0.0692,0.0679,0.0679,0.0679,0.0679,0,0.0639,0.0642,0.0639,0.0654,0.067,0.0667,0.0685,0.0699,0.073,0.0817,0.0835,0.0877,0.0913,0.087,0.0832,0.0797,0.0771,0.0709,0.0707,0.0706,0.0775,0.0785,0.0733,0,0,0,0,0,0.0637,0.0623,0.0631,0.0624,0.0643,0.0649,0.0685,0.07,0.0763,0.0795,0.0807,0.0838,0.0826,0.083,0.0794,0.0822,0.0755,0.0774,0.0679,0.0683,0.0682,0.0765,0,0,0,0,0,0,0.0622,0.0625,0.0618,0.0596,0.0589,0.0594,0.0619,0.0664,0.0672,0.0747,0.0744,0.0794,0.0785,0.0847,0.0784,0.0782,0.0704,0.0793,0.079,0.0683,0.0682,0.0682,0.0767,0,0,0,0,0]},{"header":{"parameterUnit":"m.s-1","parameterCategory":2,"la1":30.2991,"la2":30.254,"lo1":-89.0895,"lo2":-89.0444,"dy":0.0017,"dx":0.0017,"nx":28,"ny":28,"refTime":"2025-07-27T09:00:00:Z","depth":"4","parameterNumber":3,"parameterNumberName":"V-component_of_CURRENTS"},"data":[0,0,0,0,0,0,0,0,0,0,0,0,0,0,0,0,0,0,0,0,0,0,0,0,0,0,0,0,0,0,0,0,0,0,0,0,0,0,0,0,0,0,0,0,0,0,0,0,0,0,0,0,0,0,0,0,0,0,0.0354,0.0354,0,0.0342,0.0342,0.0342,0.0334,0.0334,0.0334,0.0334,0.029,0.0289,0.0288,0,0,0,0,0,0,0,0,0,0,0,0,0,0.0347,0.0347,0.0354,0.0354,0.0354,0.0342,0.0342,0.0342,0.0334,0.0334,0.0334,0.0334,0.0291,0.0289,0.0288,0,0,0,0,0,0,0,0,0,0,0,0,0,0.0343,0.0347,0.0354,0.035,0.0349,0.0342,0.0342,0.0342,0.0334,0.0334,0.0334,0.0334,0.0291,0.0289,0.0287,0.0273,0,0,0.0282,0.0281,0,0,0,0,0,0,0,0,0.0343,0.0343,0.035,0.035,0.0349,0.0341,0.0323,0.0318,0.0334,0.0338,0.0334,0.0335,0.0305,0.0302,0.0298,0.0271,0.0269,0.0281,0.028,0.0279,0.0279,0,0,0,0,0,0,0,0.0343,0.0343,0.0348,0.035,0.035,0.0341,0.0341,0.0322,0.0319,0.0338,0.0338,0.0339,0.0304,0.03,0.0297,0.0268,0.0281,0.028,0.0279,0.0278,0.0162,0.016,0,0,0,0,0,0,0.0349,0.0343,0.0348,0.0347,0.0348,0.0341,0.0341,0.0342,0.032,0.0318,0.0339,0.0339,0.0303,0.0299,0.0295,0.023,0.0279,0.0278,0.0277,0.0164,0.0162,0.016,0,0,0,0,0,0,0.0349,0.0349,0.0348,0.0346,0.0346,0.0341,0.0343,0.0342,0.0336,0.0321,0.0318,0.0334,0.0303,0.0298,0.0264,0.023,0.0277,0.0275,0.0166,0.0163,0.0161,0.013,0,0,0,0,0,0,0.0348,0.0349,0.036,0.0347,0.0346,0.034,0.0343,0.0342,0.0337,0.0337,0.0316,0.0312,0.0303,0.0267,0.0262,0.0229,0.0274,0.0169,0.0165,0.0162,0.0134,0.0127,0.0121,0,0,0,0,0,0.0348,0.0354,0.036,0.0361,0.0358,0.0339,0.0338,0.0334,0.0337,0.033,0.0309,0.0313,0.024,0.0264,0.0259,0.0224,0.0171,0.0166,0.0162,0.0137,0.0128,0.0121,0,0,0,0,0,0,0.0355,0.0353,0.036,0.0366,0.0354,0.0339,0.034,0.0333,0.0312,0.0314,0.0297,0.0291,0.0242,0.0238,0.0265,0.0177,0.0202,0.0197,0.0184,0.0176,0.017,0.0203,0.0272,0,0,0,0,0,0.0363,0.0369,0.0359,0.0365,0.0361,0.0351,0.0347,0.034,0.032,0.0312,0.029,0.026,0.022,0.0205,0.0173,0.0136,0.013,0.0106,0.0099,0.0094,0.0115,0.0057,0.0047,0.0145,0.0145,0.0146,0,0,0.0365,0.0369,0.0371,0.0367,0.0363,0.0352,0.0348,0.0339,0.0325,0.031,0.0278,0.0238,0.0204,0.0152,0.013,0.0147,0.0059,0.0088,0.0084,0.0109,0.0051,0.0042,0.0034,0.0142,0.0143,0.0143,0,0,0.0366,0.0377,0.0379,0.0375,0.0371,0.0357,0.0353,0.0328,0.0315,0.0279,0.0251,0.0197,0.015,0.0109,0.0086,0.0027,0.0024,0.0005,0.0004,-0.0054,-0.0062,-0.0069,-0.0095,-0.0104,0.0005,0.0005,0.0005,0,0.0373,0.0376,0.0374,0.0377,0.0379,0.0357,0.0353,0.0331,0.0294,0.0277,0.0267,0.0165,0.013,0.0063,0.0035,0.0014,-0.0007,0.0039,-0.006,-0.0067,-0.0074,-0.0099,-0.0108,0.0003,0.0003,0.0003,0.0004,0,0.0371,0.0379,0.0379,0.0377,0.0374,0.0366,0.0342,0.032,0.0296,0.0265,0.0195,0.0135,0.0086,0.0038,0.0021,-0.0055,-0.0051,-0.0064,-0.0033,-0.0085,-0.0109,-0.0118,0.0,0.0001,0.0001,0.0002,0,0,0.037,0.0376,0.0379,0.0388,0.0378,0.0374,0.035,0.0316,0.0304,0.0236,0.0205,0.0101,0.0074,0.0046,-0.0004,-0.0067,-0.0146,-0.0082,-0.0084,-0.0093,-0.0255,-0.0197,-0.0201,-0.0182,-0.0183,-0.0185,-0.0255,0,0.0369,0.038,0.0381,0.0385,0.0386,0.0376,0.0361,0.0332,0.0294,0.0253,0.0171,0.0125,0.0075,0.0052,-0.0025,-0.0119,-0.017,-0.0124,-0.0214,-0.0216,-0.0147,-0.021,-0.019,-0.0261,-0.0263,-0.0265,-0.0266,0,0.0365,0.0377,0.0387,0.0403,0.0405,0.0407,0.0398,0.0381,0.0322,0.0297,0.0232,0.0178,0.0077,0.005,-0.0118,-0.0088,-0.0158,-0.0233,-0.0238,-0.0169,-0.0174,-0.02,-0.0282,-0.0281,-0.028,-0.0279,-0.0278,0,0.0369,0.0382,0.0395,0.0402,0.0408,0.0422,0.0426,0.0394,0.0384,0.0336,0.0318,0.0201,0.0149,0.0023,-0.0113,-0.0121,-0.0289,-0.0317,-0.0326,-0.0322,-0.0336,-0.0328,-0.0413,-0.0413,-0.0413,-0.0413,-0.0413,0,0.0366,0.0378,0.0406,0.0418,0.0442,0.0451,0.0465,0.0457,0.0436,0.0419,0.0352,0.0307,0.0137,0.0024,-0.0101,-0.0233,-0.0274,-0.0323,-0.0342,-0.0349,-0.0342,-0.0343,-0.0334,-0.0416,-0.0415,-0.0414,-0.0414,0,0.036,0.0374,0.0399,0.0431,0.0446,0.0472,0.0507,0.0513,0.0501,0.0481,0.0474,0.0369,0.0232,0.0078,-0.0124,-0.0199,-0.0339,-0.0363,-0.0334,-0.035,-0.0336,-0.0328,-0.0395,-0.0394,-0.0393,-0.0392,-0.0391,0,0.0354,0.0366,0.0417,0.0444,0.0466,0.0505,0.0532,0.0545,0.0553,0.0507,0.0495,0.0386,0.0302,0.0069,-0.0093,-0.0288,-0.0312,-0.0358,-0.0375,-0.0325,-0.0337,-0.0331,-0.0324,-0.0389,-0.0389,-0.0388,-0.0388,0,0.0346,0.0372,0.0399,0.0454,0.05,0.0538,0.0581,0.0591,0.0596,0.058,0.0514,0.0407,0.0266,0.0081,-0.0042,-0.0197,-0.0326,-0.0347,-0.0352,-0.0368,-0.0319,-0.033,-0.0325,-0.0384,-0.0385,-0.0385,-0.0385,0,0.0348,0.0369,0.0413,0.0462,0.0513,0.0559,0.0583,0.0597,0.0605,0.057,0.0539,0.0397,0.0307,0.0129,-0.001,-0.0125,-0.0168,-0.0205,-0.0218,-0.0224,-0.0149,-0.006,-0.0063,0,0,0,0,0,0.0346,0.0372,0.0416,0.0473,0.0523,0.0558,0.0604,0.0623,0.0628,0.0595,0.0574,0.045,0.0263,0.0166,0.0058,-0.0003,-0.0193,-0.013,-0.0242,-0.0362,-0.0367,-0.0303,0,0,0,0,0,0,0.0345,0.0385,0.0412,0.047,0.0511,0.0569,0.0604,0.0616,0.0597,0.0582,0.0476,0.0436,0.0242,0.032,0.0056,0.002,-0.006,-0.0221,-0.0222,-0.036,-0.0364,-0.0367,-0.0304,0,0,0,0,0]}]]